Regional Weather Roundup
Issued by NWS

Home | Current Version | Previous Version | Graphics & Text | Print | Product List | Glossary On
Versions: 1 2 3 4 5 6 7 8 9 10 11 12 13 14 15 16 17 18 19 20 21 22 23 24 25 26 27 28 29 30 31 32 33 34 35 36 37 38 39 40 41 42 43 44 45 46 47 48 49 50
000
ASUS43 KMKX 250620
RWRWI

WISCONSIN REGIONAL WEATHER ROUNDUP
NATIONAL WEATHER SERVICE MILWAUKEE/SULLIVAN WI
100 AM CDT FRI JUL 25 2014

NOTE: "FAIR" INDICATES FEW OR NO CLOUDS BELOW 12,000 FEET WITH NO
SIGNIFICANT WEATHER AND/OR OBSTRUCTIONS TO VISIBILITY.

WIZ001-002-006>008-014>016-023>028-250700-
NORTHWEST WISCONSIN

CITY           SKY/WX    TMP DP  RH WIND       PRES   REMARKS
SUPERIOR ARPT  CLEAR     59  56  88 CALM      29.91S
6HR MIN TEMP:  56; 6HR MAX TEMP:  67;

ASHLAND        CLOUDY    61  59  93 CALM      29.94R
6HR MIN TEMP:  60; 6HR MAX TEMP:  69;

HAYWARD        MOCLDY    66  58  75 S6        29.94S
6HR MIN TEMP:  66; 6HR MAX TEMP:  72; 6HR PCP: TRACE;

SIREN          PTCLDY    67  59  74 S7        29.93R
6HR MIN TEMP:  67; 6HR MAX TEMP:  76;

RICE LAKE      MOCLDY    65  58  77 S5        29.98R
6HR MIN TEMP:  64; 6HR MAX TEMP:  74;

LADYSMITH      CLOUDY    65  58  77 S6        29.98F
6HR MIN TEMP:  62; 6HR MAX TEMP:  74;

EAU CLAIRE     CLEAR     68  60  75 S10       29.95F
6HR MIN TEMP:  65; 6HR MAX TEMP:  77;

MENOMONIE      CLEAR     66  60  83 S7        29.97S
6HR MIN TEMP:  64; 6HR MAX TEMP:  76;

NEW RICHMOND   PTCLDY    67  59  76 S7        29.96R
6HR MIN TEMP:  64; 6HR MAX TEMP:  76;

OSCEOLA        MOCLDY    66  62  87 S5        29.97R
6HR MIN TEMP:  65; 6HR MAX TEMP:  77;

$$

WIZ003>005-009-010-017-018-250700-
NORTH CENTRAL WISCONSIN

CITY           SKY/WX    TMP DP  RH WIND       PRES   REMARKS
WOODRUFF       MOCLDY    62  55  76 CALM      30.00R
6HR MIN TEMP:  59; 6HR MAX TEMP:  72;

RHINELANDER    CLOUDY    62  54  74 CALM      30.01S
6HR MIN TEMP:  55; 6HR MAX TEMP:  70;

EAGLE RIVER    MOCLDY    57  55  94 CALM      30.00R
6HR MIN TEMP:  55; 6HR MAX TEMP:  70;

LAND O LAKES   MOCLDY    55  54  97 CALM      30.01R
6HR MIN TEMP:  54; 6HR MAX TEMP:  73;

PHILLIPS       CLOUDY    64  56  76 S7        29.97F
6HR MIN TEMP:  61; 6HR MAX TEMP:  71;

TOMAHAWK       CLOUDY    59  55  85 CALM      30.01R
6HR MIN TEMP:  56; 6HR MAX TEMP:  68;

MEDFORD        CLOUDY    63  57  82 S6        30.00S
6HR MIN TEMP:  58; 6HR MAX TEMP:  71;

MERRILL        CLOUDY    60  57  91 CALM      30.00R
6HR MIN TEMP:  57; 6HR MAX TEMP:  71;

$$

WIZ029-030-035-036-043>047-250700-
CENTRAL WISCONSIN

CITY           SKY/WX    TMP DP  RH WIND       PRES   REMARKS
WAUSAU         CLOUDY    65  58  78 SW3       29.99S
6HR MIN TEMP:  62; 6HR MAX TEMP:  73; 6HR PCP: TRACE;

MOSINEE        MOCLDY    63  59  88 S7        30.01S
MARSHFIELD     PTCLDY    61  58  90 S7        30.01S
6HR MIN TEMP:  61; 6HR MAX TEMP:  73;

STEVENS POINT  MOCLDY    63  55  76 SW3       30.02R
6HR MIN TEMP:  60; 6HR MAX TEMP:  73;

WAUPACA        MOCLDY    64  56  75 S3        30.02S
6HR MIN TEMP:  64; 6HR MAX TEMP:  76;

WAUTOMA        PTCLDY    62  57  83 S8        30.04R
6HR MIN TEMP:  58; 6HR MAX TEMP:  76;

WISC RAPIDS    PTCLDY    63  56  78 S6        30.03R
6HR MIN TEMP:  61; 6HR MAX TEMP:  75;

CAMP DOUGLAS   MOCLDY    63  60  92 S5        30.03R
6HR MIN TEMP:  55; 6HR MAX TEMP:  74;

$$

WIZ011>013-019>022-031-037>040-048>050-250700-
NORTHEAST WISCONSIN

CITY           SKY/WX    TMP DP  RH WIND       PRES   REMARKS
ANTIGO         CLOUDY    58  55  89 S6        30.01S
6HR MIN TEMP:  57; 6HR MAX TEMP:  68;

STURGEON BAY   CLOUDY    61  45  55 S10       30.01F
6HR MIN TEMP:  61; 6HR MAX TEMP:  66;

GREEN BAY      MOCLDY    63  45  51 S9        30.02F
6HR MIN TEMP:  62; 6HR MAX TEMP:  74;

MANITOWOC      CLOUDY    63  43  48 SW9       30.04S
6HR MIN TEMP:  62; 6HR MAX TEMP:  66;

APPLETON       MOCLDY    63  43  48 S10       30.02F
CLINTONVILLE   CLOUDY    63  50  63 S5        30.01S
OSHKOSH        PTCLDY    60  49  66 S10       30.02F
6HR MIN TEMP:  60; 6HR MAX TEMP:  73;

$$

WIZ032>034-041-042-053>061-250700-
SOUTHWEST WISCONSIN

CITY           SKY/WX    TMP DP  RH WIND       PRES   REMARKS
LA CROSSE      CLEAR     68  60  75 SE6       30.00S
6HR MIN TEMP:  68; 6HR MAX TEMP:  78;

SPARTA         PTCLDY    57  55  91 CALM      30.03R
6HR MIN TEMP:  57; 6HR MAX TEMP:  74;

VIROQUA        FAIR      64  59  83 S5        30.04S
6HR MIN TEMP:  63; 6HR MAX TEMP:  73;

BOSCOBEL       CLEAR     63  59  87 CALM      30.04R
6HR MIN TEMP:  62; 6HR MAX TEMP:  76;

PRAIRIE DU CHI CLEAR     63  58  83 E3        30.02F
6HR MIN TEMP:  63; 6HR MAX TEMP:  75;

PLATTEVILLE    FAIR      62  57  82 S5        30.07R
6HR MIN TEMP:  62; 6HR MAX TEMP:  73;

$$

WIZ056-057-062-063-064-067-068-250700-
SOUTH CENTRAL WISCONSIN

CITY           SKY/WX    TMP DP  RH WIND       PRES   REMARKS
BARABOO/DELLS  CLEAR     61  55  81 SW6       30.04S
6HR MIN TEMP:  60; 6HR MAX TEMP:  73;

LONE ROCK      CLEAR     63  56  78 CALM      30.04R
6HR MIN TEMP:  63; 6HR MAX TEMP:  78;

WATERTOWN      CLEAR     56  48  74 CALM      30.05R
6HR MIN TEMP:  56; 6HR MAX TEMP:  72;

MADISON        CLEAR     65  55  70 S8        30.06R
6HR MIN TEMP:  64; 6HR MAX TEMP:  75;

MIDDLETON      FAIR      65  56  71 SW5       30.05R
6HR MIN TEMP:  59; 6HR MAX TEMP:  75;

MONROE         CLEAR     61  55  82 S7        30.06R
JANESVILLE     CLEAR     61  46  59 S3        30.06R
$$

WIZ051-052-058>065-066-070>072-250700-
SOUTHEAST WISCONSIN

CITY           SKY/WX    TMP DP  RH WIND       PRES   REMARKS
MILWAUKEE      PTCLDY    61  44  53 CALM      30.05S
6HR MIN TEMP:  60; 6HR MAX TEMP:  66;

WAUKESHA       CLEAR     55  43  62 SW3       30.08R
MILWAUKEE/TIMM PTCLDY    59  41  51 CALM      30.07R
RACINE         CLEAR     58  52  80 SW6       30.07R
6HR MIN TEMP:  57; 6HR MAX TEMP:  67;

BURLINGTON     CLEAR     50  48  92 CALM      30.06R
6HR MIN TEMP:  50; 6HR MAX TEMP:  67;

KENOSHA        CLEAR     58  51  78 S3        30.05S
6HR MIN TEMP:  58; 6HR MAX TEMP:  68;

FOND DU LAC    PTCLDY    57  47  69 S6        30.04S
6HR MIN TEMP:  57; 6HR MAX TEMP:  73;

SHEBOYGAN      PTCLDY    55  48  77 CALM      30.05R
6HR MIN TEMP:  54; 6HR MAX TEMP:  66;

WEST BEND      PTCLDY    54  45  71 CALM      30.06R
JUNEAU         CLEAR     58  42  55 S3        30.07R
6HR MIN TEMP:  58; 6HR MAX TEMP:  72;

$$

LSZ147-162-250700-
LAKE SUPERIOR

STATION/POSITION TIME  TEMP    WIND        PRES    WAVE
                       AIR SEA DIR/SP/G            HT/PER
                 (UTC) (F)     (DEG/KT/KT) (MB)    (FT/S)
$$

LMZ867-665-643>646-250700-
LAKE MICHIGAN

STATION/POSITION TIME  TEMP    WIND        PRES    WAVE
                       AIR SEA DIR/SP/G            HT/PER
                 (UTC) (F)     (DEG/KT/KT) (MB)    (FT/S)
$$

TC  - TEMPERATURE IN CELSIUS
VSB - VISIBILITY IN STATUTE MILES
WCI - WIND CHILL INDEX
HX  - HEAT INDEX




USA.gov is the U.S. government's official web portal to all federal, state and local government web resources and services.